TimeCDT,TemperatureF,Dew PointF,Humidity,Sea Level PressureIn,VisibilityMPH,Wind Direction,Wind SpeedMPH,Gust SpeedMPH,PrecipitationIn,Events,Conditions,WindDirDegrees,DateUTC
12:15 AM,64.6,60.1,85,30.12,10.0,ESE,3.5,-,N/A,,Clear,110,2013-07-13 05:15:00
12:35 AM,63.9,60.3,88,30.11,10.0,Calm,Calm,-,N/A,,Clear,0,2013-07-13 05:35:00
12:55 AM,64.9,60.4,85,30.12,10.0,Calm,Calm,-,N/A,,Clear,0,2013-07-13 05:55:00
1:15 AM,63.5,60.3,89,30.12,10.0,Calm,Calm,-,N/A,,Clear,0,2013-07-13 06:15:00
1:35 AM,61.5,60.1,95,30.12,10.0,Calm,Calm,-,N/A,,Clear,0,2013-07-13 06:35:00
1:55 AM,61.7,59.9,94,30.12,10.0,Calm,Calm,-,N/A,,Clear,0,2013-07-13 06:55:00
2:15 AM,60.1,59.2,97,30.12,10.0,Calm,Calm,-,N/A,,Clear,0,2013-07-13 07:15:00
2:35 AM,60.6,59.9,97,30.13,10.0,Calm,Calm,-,N/A,,Clear,0,2013-07-13 07:35:00
2:55 AM,59.4,58.6,97,30.14,10.0,Calm,Calm,-,N/A,,Clear,0,2013-07-13 07:55:00
3:15 AM,59.2,58.6,98,30.14,10.0,Calm,Calm,-,N/A,,Clear,0,2013-07-13 08:15:00
3:35 AM,59.5,59.0,98,30.14,10.0,Calm,Calm,-,N/A,,Clear,0,2013-07-13 08:35:00
3:55 AM,59.2,58.3,97,30.14,10.0,ENE,3.5,-,N/A,,Clear,70,2013-07-13 08:55:00
4:15 AM,58.6,58.1,98,30.14,10.0,ENE,3.5,-,N/A,,Clear,60,2013-07-13 09:15:00
4:35 AM,59.0,58.1,97,30.14,10.0,NE,3.5,-,N/A,,Clear,50,2013-07-13 09:35:00
4:55 AM,58.5,57.2,96,30.14,10.0,NE,3.5,-,N/A,,Clear,50,2013-07-13 09:55:00
5:15 AM,59.0,57.6,95,30.14,10.0,ENE,3.5,-,N/A,,Clear,60,2013-07-13 10:15:00
5:35 AM,57.4,55.9,95,30.14,10.0,East,4.6,-,N/A,,Clear,80,2013-07-13 10:35:00
5:55 AM,57.7,56.8,97,30.14,10.0,Calm,Calm,-,N/A,,Clear,0,2013-07-13 10:55:00
6:15 AM,58.3,57.2,96,30.14,10.0,Calm,Calm,-,N/A,,Clear,0,2013-07-13 11:15:00
6:35 AM,60.1,58.3,94,30.13,10.0,Calm,Calm,-,N/A,,Clear,0,2013-07-13 11:35:00
6:55 AM,62.8,59.2,88,30.15,10.0,Calm,Calm,-,N/A,,Clear,0,2013-07-13 11:55:00
7:15 AM,64.6,59.4,83,30.16,10.0,NE,4.6,-,N/A,,Clear,50,2013-07-13 12:15:00
7:35 AM,66.2,59.5,79,30.17,10.0,ENE,3.5,-,N/A,,Clear,70,2013-07-13 12:35:00
7:55 AM,67.8,60.3,77,30.16,10.0,East,4.6,-,N/A,,Clear,100,2013-07-13 12:55:00
8:15 AM,69.1,60.6,74,30.17,10.0,Calm,Calm,-,N/A,,Clear,0,2013-07-13 13:15:00
8:35 AM,70.3,61.0,72,30.17,10.0,Calm,Calm,-,N/A,,Clear,0,2013-07-13 13:35:00
8:55 AM,72.1,62.1,70,30.17,10.0,ENE,6.9,-,N/A,,Clear,70,2013-07-13 13:55:00
9:15 AM,73.0,62.2,69,30.16,10.0,East,5.8,-,N/A,,Clear,80,2013-07-13 14:15:00
9:35 AM,73.8,61.0,64,30.16,10.0,East,5.8,-,N/A,,Clear,90,2013-07-13 14:35:00
9:55 AM,75.2,61.0,61,30.16,10.0,ENE,5.8,-,N/A,,Clear,70,2013-07-13 14:55:00
10:15 AM,76.1,59.7,57,30.16,10.0,ENE,5.8,-,N/A,,Clear,70,2013-07-13 15:15:00
10:35 AM,76.8,59.7,55,30.16,10.0,Calm,Calm,-,N/A,,Clear,0,2013-07-13 15:35:00
10:55 AM,77.7,60.1,54,30.16,10.0,ENE,5.8,-,N/A,,Clear,60,2013-07-13 15:55:00
11:15 AM,78.1,59.9,53,30.16,10.0,ENE,4.6,-,N/A,,Clear,70,2013-07-13 16:15:00
11:35 AM,78.1,60.4,54,30.15,10.0,East,3.5,-,N/A,,Clear,80,2013-07-13 16:35:00
11:55 AM,79.3,60.6,53,30.15,10.0,ENE,5.8,-,N/A,,Scattered Clouds,70,2013-07-13 16:55:00
12:15 PM,80.2,60.8,51,30.15,10.0,East,10.4,-,N/A,,Clear,100,2013-07-13 17:15:00
12:35 PM,80.2,58.6,48,30.15,10.0,East,6.9,-,N/A,,Clear,100,2013-07-13 17:35:00
12:55 PM,80.4,58.3,47,30.15,10.0,ESE,8.1,-,N/A,,Clear,120,2013-07-13 17:55:00
1:15 PM,81.3,59.9,48,30.14,10.0,East,11.5,-,N/A,,Clear,100,2013-07-13 18:15:00
1:35 PM,81.0,61.0,50,30.14,10.0,ESE,8.1,-,N/A,,Scattered Clouds,110,2013-07-13 18:35:00
1:55 PM,81.1,58.8,46,30.13,10.0,East,9.2,-,N/A,,Scattered Clouds,80,2013-07-13 18:55:00
2:15 PM,81.5,59.7,47,30.12,10.0,ESE,13.8,-,N/A,,Clear,110,2013-07-13 19:15:00
2:35 PM,82.4,59.2,45,30.13,10.0,ESE,6.9,-,N/A,,Clear,110,2013-07-13 19:35:00
2:55 PM,81.5,59.9,48,30.13,10.0,East,5.8,-,N/A,,Clear,80,2013-07-13 19:55:00
3:15 PM,82.2,61.0,48,30.12,10.0,NE,9.2,-,N/A,,Scattered Clouds,50,2013-07-13 20:15:00
3:35 PM,81.3,61.0,50,30.13,10.0,East,8.1,-,N/A,,Mostly Cloudy,80,2013-07-13 20:35:00
3:55 PM,83.1,60.6,46,30.12,10.0,ESE,5.8,-,N/A,,Mostly Cloudy,120,2013-07-13 20:55:00
4:15 PM,82.0,60.4,48,30.12,10.0,East,8.1,-,N/A,,Mostly Cloudy,100,2013-07-13 21:15:00
4:35 PM,82.2,60.8,48,30.12,10.0,East,11.5,-,N/A,,Scattered Clouds,100,2013-07-13 21:35:00
4:55 PM,82.6,60.3,47,30.12,10.0,ESE,9.2,17.3,N/A,,Scattered Clouds,110,2013-07-13 21:55:00
5:15 PM,81.9,60.6,48,30.11,10.0,East,12.7,17.3,N/A,,Scattered Clouds,90,2013-07-13 22:15:00
5:35 PM,82.2,61.5,49,30.11,10.0,East,11.5,-,N/A,,Clear,100,2013-07-13 22:35:00
5:55 PM,81.9,61.7,50,30.11,10.0,ESE,10.4,-,N/A,,Clear,110,2013-07-13 22:55:00
6:15 PM,81.5,62.4,52,30.11,10.0,East,6.9,10.4,N/A,,Clear,90,2013-07-13 23:15:00
6:35 PM,81.1,62.8,53,30.11,10.0,East,6.9,-,N/A,,Scattered Clouds,100,2013-07-13 23:35:00
6:55 PM,80.1,61.9,54,30.11,10.0,East,8.1,-,N/A,,Scattered Clouds,90,2013-07-13 23:55:00
7:15 PM,79.3,62.8,57,30.11,10.0,East,8.1,-,N/A,,Scattered Clouds,90,2013-07-14 00:15:00
7:35 PM,78.1,63.1,60,30.11,10.0,East,6.9,-,N/A,,Clear,90,2013-07-14 00:35:00
7:55 PM,76.3,63.3,64,30.12,10.0,East,6.9,-,N/A,,Clear,80,2013-07-14 00:55:00
8:15 PM,74.3,63.5,69,30.12,10.0,East,6.9,-,N/A,,Clear,90,2013-07-14 01:15:00
8:35 PM,73.4,63.5,71,30.12,10.0,East,3.5,-,N/A,,Clear,80,2013-07-14 01:35:00
8:55 PM,73.0,63.9,73,30.13,10.0,Calm,Calm,-,N/A,,Clear,0,2013-07-14 01:55:00
9:15 PM,72.7,63.5,73,30.14,10.0,NNE,3.5,-,N/A,,Clear,30,2013-07-14 02:15:00
9:35 PM,72.5,63.5,73,30.14,10.0,NE,4.6,-,N/A,,Clear,50,2013-07-14 02:35:00
9:55 PM,71.6,63.5,76,30.15,10.0,NNE,5.8,-,N/A,,Clear,20,2013-07-14 02:55:00
10:15 PM,70.7,64.4,80,30.15,10.0,NNE,4.6,-,N/A,,Mostly Cloudy,20,2013-07-14 03:15:00
10:35 PM,69.8,64.4,83,30.15,10.0,NNE,5.8,-,N/A,,Scattered Clouds,30,2013-07-14 03:35:00
10:55 PM,69.3,64.4,84,30.15,10.0,NE,5.8,-,N/A,,Clear,40,2013-07-14 03:55:00
11:15 PM,68.5,64.4,87,30.16,10.0,NE,5.8,-,N/A,,Clear,40,2013-07-14 04:15:00
11:35 PM,68.2,64.6,88,30.15,10.0,NNE,5.8,-,N/A,,Clear,30,2013-07-14 04:35:00
11:55 PM,68.0,64.6,89,30.15,10.0,NE,4.6,-,N/A,,Clear,40,2013-07-14 04:55:00